| time (UTC) | temp F | wind direction | speed MPH | gust MPH | rain 1hr in | rain 24hr in | rain mn in | humidity % | barometer mb |
| 20260904103608 | 52 | 102 | 4.0 | 4.0 | 0.00 | 0.00 | 0.00 | 91 | 1011.1 |
| 20260904103104 | 52 | 84 | 0.0 | 4.0 | 0.00 | 0.00 | 0.00 | 91 | 1010.8 |
| 20260904102600 | 53 | 67 | 0.0 | 2.0 | 0.00 | 0.00 | 0.00 | 89 | 1011.0 |
| 20260904102054 | 53 | 56 | 2.0 | 3.0 | 0.00 | 0.00 | 0.00 | 87 | 1010.9 |
| 20260904101551 | 53 | 46 | 3.0 | 4.0 | 0.00 | 0.00 | 0.00 | 86 | 1010.5 |
| 20260904101047 | 53 | 16 | 2.0 | 4.0 | 0.00 | 0.00 | 0.00 | 87 | 1010.4 |
| 20260904100543 | 52 | 0 | 2.0 | 3.0 | 0.00 | 0.00 | 0.00 | 89 | 1010.3 |
| 20260904100037 | 52 | 357 | 3.0 | 4.0 | 0.00 | 0.00 | 0.00 | 91 | 1010.4 |
| 20260904095532 | 51 | 348 | 2.0 | 3.0 | 0.00 | 0.00 | 0.00 | 92 | 1010.5 |
| 20260904095028 | 51 | 335 | 2.0 | 4.0 | 0.00 | 0.00 | 0.00 | 92 | 1010.3 |
| 20260904094522 | 52 | 14 | 3.0 | 3.0 | 0.00 | 0.00 | 0.00 | 91 | 1010.5 |
| 20260904094017 | 52 | 33 | 2.0 | 3.0 | 0.00 | 0.00 | 0.00 | 91 | 1010.4 |
| 20260904093514 | 51 | 350 | 3.0 | 4.0 | 0.00 | 0.00 | 0.00 | 92 | 1010.2 |
| 20260904093009 | 51 | 44 | 2.0 | 4.0 | 0.00 | 0.00 | 0.00 | 91 | 1010.4 |
| 20260904092505 | 52 | 16 | 2.0 | 3.0 | 0.00 | 0.00 | 0.00 | 91 | 1010.7 |
| 20260904092001 | 52 | 8 | 2.0 | 2.0 | 0.00 | 0.00 | 0.00 | 91 | 1010.9 |
| 20260904091456 | 51 | 58 | 2.0 | 2.0 | 0.00 | 0.00 | 0.00 | 93 | 1010.9 |
| 20260904090950 | 51 | 26 | 0.0 | 2.0 | 0.00 | 0.00 | 0.00 | 93 | 1010.9 |
| 20260904090446 | 51 | 7 | 0.0 | 3.0 | 0.00 | 0.00 | 0.00 | 94 | 1010.9 |
| 20260904085941 | 51 | 19 | 2.0 | 2.0 | 0.00 | 0.00 | 0.00 | 93 | 1011.0 |
| 20260904085436 | 51 | 27 | 0.0 | 3.0 | 0.00 | 0.00 | 0.00 | 92 | 1011.0 |
| 20260904084936 | 52 | 23 | 1.0 | 2.0 | 0.00 | 0.00 | 0.00 | 91 | 1011.0 |
| 20260904084432 | 52 | 31 | 2.0 | 4.0 | 0.00 | 0.00 | 0.00 | 91 | 1011.1 |
| 20260904083928 | 52 | 31 | 2.0 | 4.0 | 0.00 | 0.00 | 0.00 | 90 | 1011.0 |
| 20260904083424 | 52 | 27 | 3.0 | 3.0 | 0.00 | 0.00 | 0.00 | 91 | 1011.0 |
| 20260904082920 | 52 | 34 | 2.0 | 4.0 | 0.00 | 0.00 | 0.00 | 92 | 1011.2 |
| 20260904082420 | 52 | 33 | 2.0 | 4.0 | 0.00 | 0.00 | 0.00 | 92 | 1011.0 |
| 20260904081915 | 52 | 26 | 2.0 | 3.0 | 0.00 | 0.00 | 0.00 | 92 | 1010.8 |
| 20260904081410 | 52 | 35 | 2.0 | 3.0 | 0.00 | 0.00 | 0.00 | 92 | 1011.0 |
| 20260904080906 | 52 | 39 | 2.0 | 3.0 | 0.00 | 0.00 | 0.00 | 92 | 1011.1 |
| 20260904080401 | 52 | 13 | 2.0 | 3.0 | 0.00 | 0.00 | 0.00 | 93 | 1011.1 |
| 20260904075857 | 51 | 4 | 2.0 | 2.0 | 0.00 | 0.00 | 0.00 | 95 | 1011.1 |
| 20260904075353 | 51 | 25 | 1.0 | 2.0 | 0.00 | 0.00 | 0.00 | 94 | 1011.1 |
| 20260904074851 | 51 | 124 | 1.0 | 2.0 | 0.00 | 0.00 | 0.00 | 93 | 1011.1 |
| 20260904074346 | 52 | 109 | 2.0 | 3.0 | 0.00 | 0.00 | 0.00 | 92 | 1011.3 |
| 20260904073842 | 52 | 99 | 2.0 | 2.0 | 0.00 | 0.00 | 0.00 | 92 | 1011.1 |
| 20260904073338 | 53 | 48 | 2.0 | 3.0 | 0.00 | 0.00 | 0.00 | 91 | 1011.1 |
| 20260904072833 | 53 | 52 | 2.0 | 3.0 | 0.00 | 0.00 | 0.00 | 91 | 1011.2 |
| 20260904072332 | 53 | 14 | 2.0 | 3.0 | 0.00 | 0.00 | 0.00 | 92 | 1011.0 |
| 20260904071828 | 52 | 30 | 2.0 | 3.0 | 0.00 | 0.00 | 0.00 | 93 | 1011.0 |
| 20260904071323 | 52 | 58 | 2.0 | 3.0 | 0.00 | 0.00 | 0.00 | 93 | 1010.9 |
| 20260904070818 | 52 | 36 | 2.0 | 2.0 | 0.00 | 0.00 | 0.00 | 93 | 1010.9 |
| 20260904070316 | 52 | 45 | 2.0 | 3.0 | 0.00 | 0.00 | 0.00 | 93 | 1011.0 |
| 20260904065812 | 52 | 19 | 1.0 | 2.0 | 0.00 | 0.01 | 0.01 | 92 | 1010.9 |
| 20260904065308 | 53 | 37 | 2.0 | 3.0 | 0.00 | 0.01 | 0.01 | 91 | 1011.0 |
| 20260904064803 | 53 | 29 | 3.0 | 4.0 | 0.00 | 0.01 | 0.01 | 91 | 1010.9 |
| 20260904064259 | 52 | 31 | 2.0 | 3.0 | 0.00 | 0.01 | 0.01 | 92 | 1010.9 |
| 20260904063755 | 52 | 35 | 2.0 | 3.0 | 0.00 | 0.01 | 0.01 | 92 | 1010.7 |
| 20260904063251 | 52 | 32 | 3.0 | 3.0 | 0.00 | 0.01 | 0.01 | 91 | 1010.8 |
| 20260904062746 | 52 | 23 | 2.0 | 3.0 | 0.00 | 0.01 | 0.01 | 92 | 1010.8 |
| 20260904062242 | 52 | 43 | 2.0 | 2.0 | 0.00 | 0.01 | 0.01 | 92 | 1010.8 |
| 20260904061737 | 52 | 32 | 2.0 | 3.0 | 0.00 | 0.01 | 0.01 | 92 | 1010.8 |
| 20260904061233 | 51 | 21 | 3.0 | 3.0 | 0.00 | 0.01 | 0.01 | 94 | 1010.8 |
| 20260904060730 | 51 | 13 | 2.0 | 3.0 | 0.00 | 0.01 | 0.01 | 95 | 1010.5 |
| 20260904060225 | 51 | 35 | 2.0 | 3.0 | 0.00 | 0.01 | 0.01 | 95 | 1010.4 |
| 20260904055720 | 51 | 34 | 2.0 | 3.0 | 0.00 | 0.01 | 0.01 | 95 | 1010.7 |
| 20260904055215 | 51 | 30 | 3.0 | 3.0 | 0.00 | 0.01 | 0.01 | 95 | 1010.8 |
| 20260904054711 | 51 | 30 | 2.0 | 3.0 | 0.00 | 0.01 | 0.01 | 96 | 1010.7 |
| 20260904054207 | 51 | 31 | 2.0 | 3.0 | 0.00 | 0.01 | 0.01 | 96 | 1010.9 |
| 20260904053702 | 51 | 20 | 2.0 | 3.0 | 0.00 | 0.01 | 0.01 | 96 | 1010.7 |
| 20260904053202 | 51 | 29 | 2.0 | 2.0 | 0.00 | 0.01 | 0.01 | 96 | 1010.8 |
| 20260904052658 | 51 | 22 | 2.0 | 2.0 | 0.00 | 0.01 | 0.01 | 96 | 1010.8 |
| 20260904052154 | 51 | 43 | 2.0 | 2.0 | 0.00 | 0.01 | 0.01 | 94 | 1010.8 |
| 20260904051650 | 52 | 86 | 1.0 | 2.0 | 0.00 | 0.01 | 0.01 | 93 | 1010.8 |
| 20260904051144 | 52 | 107 | 1.0 | 2.0 | 0.00 | 0.01 | 0.01 | 93 | 1010.9 |
| 20260904050640 | 53 | 86 | 1.0 | 2.0 | 0.00 | 0.01 | 0.01 | 92 | 1010.8 |
| 20260904050136 | 53 | 56 | 2.0 | 3.0 | 0.00 | 0.01 | 0.01 | 93 | 1010.9 |
| 20260904045631 | 53 | 32 | 2.0 | 3.0 | 0.00 | 0.01 | 0.01 | 93 | 1010.9 |
| 20260904045131 | 52 | 49 | 1.0 | 2.0 | 0.00 | 0.01 | 0.01 | 93 | 1010.8 |
| 20260904044626 | 52 | 50 | 2.0 | 2.0 | 0.00 | 0.01 | 0.01 | 93 | 1010.8 |
| 20260904044122 | 53 | 35 | 0.0 | 1.0 | 0.00 | 0.01 | 0.01 | 92 | 1010.8 |
| 20260904043619 | 53 | 88 | 1.0 | 2.0 | 0.00 | 0.01 | 0.01 | 91 | 1010.9 |
| 20260904043114 | 53 | 65 | 2.0 | 2.0 | 0.00 | 0.01 | 0.01 | 91 | 1010.9 |
| 20260904042611 | 53 | 37 | 2.0 | 3.0 | 0.00 | 0.01 | 0.01 | 91 | 1010.9 |
| 20260904042106 | 53 | 62 | 1.0 | 2.0 | 0.00 | 0.01 | 0.01 | 91 | 1011.0 |
| 20260904041601 | 53 | 37 | 2.0 | 2.0 | 0.00 | 0.01 | 0.01 | 92 | 1010.8 |
| 20260904041057 | 53 | 99 | 2.0 | 2.0 | 0.00 | 0.01 | 0.01 | 92 | 1010.8 |
| 20260904040557 | 53 | 45 | 2.0 | 4.0 | 0.00 | 0.01 | 0.01 | 93 | 1010.8 |
| 20260904040054 | 52 | 23 | 3.0 | 3.0 | 0.00 | 0.01 | 0.01 | 93 | 1010.8 |
| 20260904035549 | 51 | 39 | 2.0 | 2.0 | 0.00 | 0.01 | 0.01 | 93 | 1010.8 |
| 20260904035048 | 51 | 24 | 2.0 | 2.0 | 0.00 | 0.01 | 0.01 | 93 | 1010.8 |
| 20260904034543 | 52 | 32 | 2.0 | 2.0 | 0.00 | 0.01 | 0.01 | 92 | 1010.9 |
| 20260904034038 | 53 | 29 | 1.0 | 2.0 | 0.00 | 0.01 | 0.01 | 90 | 1010.7 |
| 20260904033534 | 53 | 50 | 2.0 | 2.0 | 0.00 | 0.01 | 0.01 | 90 | 1010.7 |
| 20260904033032 | 53 | 105 | 2.0 | 3.0 | 0.00 | 0.01 | 0.01 | 90 | 1010.5 |
| 20260904032527 | 53 | 41 | 2.0 | 2.0 | 0.00 | 0.01 | 0.01 | 90 | 1010.4 |
| 20260904032026 | 53 | 36 | 2.0 | 2.0 | 0.00 | 0.01 | 0.01 | 89 | 1010.4 |
| 20260904031520 | 53 | 53 | 2.0 | 2.0 | 0.00 | 0.01 | 0.01 | 89 | 1010.3 |
| 20260904031017 | 53 | 37 | 2.0 | 2.0 | 0.00 | 0.01 | 0.01 | 89 | 1010.5 |
| 20260904030512 | 53 | 33 | 1.0 | 2.0 | 0.00 | 0.01 | 0.01 | 89 | 1010.3 |
| 20260904030007 | 54 | 336 | 2.0 | 2.0 | 0.00 | 0.01 | 0.01 | 89 | 1010.3 |
| 20260904025503 | 54 | 359 | 0.0 | 1.0 | 0.00 | 0.01 | 0.01 | 88 | 1010.1 |
| 20260904025003 | 54 | 49 | 1.0 | 2.0 | 0.00 | 0.01 | 0.01 | 87 | 1010.1 |
| 20260904024458 | 55 | 71 | 1.0 | 1.0 | 0.00 | 0.01 | 0.01 | 86 | 1010.0 |
| 20260904023954 | 55 | 325 | 0.0 | 2.0 | 0.00 | 0.01 | 0.01 | 85 | 1010.1 |
| 20260904023450 | 56 | 39 | 2.0 | 2.0 | 0.00 | 0.01 | 0.01 | 84 | 1009.9 |
| 20260904022950 | 56 | 104 | 2.0 | 2.0 | 0.00 | 0.01 | 0.01 | 82 | 1010.1 |
| 20260904022446 | 56 | 116 | 1.0 | 2.0 | 0.00 | 0.01 | 0.01 | 81 | 1010.0 |
| 20260904021942 | 57 | 99 | 1.0 | 2.0 | 0.00 | 0.01 | 0.01 | 80 | 1010.1 |
| 20260904021433 | 57 | 112 | 1.0 | 2.0 | 0.00 | 0.01 | 0.01 | 80 | 1009.9 |
| 20260904020932 | 57 | 80 | 0.0 | 1.0 | 0.00 | 0.01 | 0.01 | 79 | 1009.8 |
| 20260904020422 | 58 | 110 | 0.0 | 1.0 | 0.00 | 0.01 | 0.01 | 77 | 1009.8 |
| 20260904015921 | 58 | 135 | 0.0 | 1.0 | 0.00 | 0.01 | 0.01 | 76 | 1009.7 |
| 20260904015417 | 58 | 54 | 2.0 | 2.0 | 0.00 | 0.01 | 0.01 | 75 | 1009.9 |
| 20260904014915 | 59 | 118 | 0.0 | 2.0 | 0.00 | 0.01 | 0.01 | 74 | 1009.8 |
| 20260904014410 | 59 | 84 | 1.0 | 2.0 | 0.00 | 0.01 | 0.01 | 73 | 1009.7 |
| 20260904013906 | 59 | 53 | 2.0 | 2.0 | 0.00 | 0.01 | 0.01 | 72 | 1009.9 |
| 20260904013402 | 60 | 115 | 0.0 | 2.0 | 0.00 | 0.01 | 0.01 | 71 | 1009.7 |
| 20260904012857 | 61 | 95 | 1.0 | 2.0 | 0.00 | 0.01 | 0.01 | 70 | 1009.6 |
| 20260904012351 | 61 | 128 | 1.0 | 1.0 | 0.00 | 0.01 | 0.01 | 69 | 1009.6 |
| 20260904011851 | 62 | 125 | 0.0 | 2.0 | 0.00 | 0.01 | 0.01 | 69 | 1009.6 |
| 20260904011346 | 63 | 107 | 2.0 | 3.0 | 0.00 | 0.01 | 0.01 | 67 | 1009.4 |
| 20260904010841 | 64 | 111 | 2.0 | 4.0 | 0.00 | 0.01 | 0.01 | 65 | 1009.3 |
| 20260904010338 | 64 | 112 | 2.0 | 4.0 | 0.00 | 0.01 | 0.01 | 65 | 1009.4 |
| 20260904005833 | 63 | 118 | 2.0 | 4.0 | 0.00 | 0.01 | 0.01 | 67 | 1009.5 |
| 20260904005328 | 64 | 147 | 3.0 | 4.0 | 0.00 | 0.01 | 0.01 | 67 | 1009.5 |
| 20260904004823 | 64 | 168 | 2.0 | 4.0 | 0.00 | 0.01 | 0.01 | 66 | 1009.5 |
| 20260904004320 | 64 | 143 | 2.0 | 5.0 | 0.00 | 0.01 | 0.01 | 67 | 1009.4 |
| 20260904003814 | 64 | 171 | 2.0 | 4.0 | 0.00 | 0.01 | 0.01 | 67 | 1009.4 |
| 20260904003311 | 64 | 176 | 1.0 | 3.0 | 0.00 | 0.01 | 0.01 | 66 | 1009.5 |
| 20260904002806 | 63 | 233 | 1.0 | 2.0 | 0.00 | 0.01 | 0.01 | 69 | 1009.5 |
| 20260904002306 | 62 | 170 | 2.0 | 4.0 | 0.00 | 0.01 | 0.01 | 70 | 1009.5 |
| 20260904001801 | 62 | 125 | 2.0 | 4.0 | 0.00 | 0.01 | 0.01 | 72 | 1009.5 |
| 20260904001256 | 63 | 106 | 2.0 | 4.0 | 0.00 | 0.01 | 0.01 | 70 | 1009.6 |
| 20260904000751 | 64 | 102 | 2.0 | 3.0 | 0.00 | 0.01 | 0.01 | 69 | 1009.5 |
| 20260904000245 | 64 | 123 | 2.0 | 5.0 | 0.00 | 0.01 | 0.01 | 68 | 1009.2 |
| 20260903235744 | 65 | 188 | 2.0 | 2.0 | 0.00 | 0.01 | 0.01 | 69 | 1009.2 |
| 20260903235241 | 64 | 122 | 2.0 | 2.0 | 0.00 | 0.01 | 0.01 | 73 | 1009.3 |
| 20260903234740 | 63 | 98 | 1.0 | 2.0 | 0.00 | 0.01 | 0.01 | 73 | 1009.6 |
| 20260903234237 | 62 | 19 | 1.0 | 2.0 | 0.00 | 0.01 | 0.01 | 75 | 1009.6 |
| 20260903233733 | 60 | 102 | 1.0 | 2.0 | 0.00 | 0.01 | 0.01 | 78 | 1009.8 |
| 20260903233228 | 60 | 142 | 0.0 | 1.0 | 0.00 | 0.01 | 0.01 | 78 | 1009.6 |
| 20260903232727 | 60 | 166 | 0.0 | 2.0 | 0.00 | 0.01 | 0.01 | 78 | 1009.6 |
| 20260903232224 | 61 | 129 | 2.0 | 2.0 | 0.00 | 0.01 | 0.01 | 77 | 1009.5 |
| 20260903231722 | 61 | 119 | 0.0 | 3.0 | 0.00 | 0.01 | 0.01 | 76 | 1009.6 |
| 20260903231218 | 62 | 148 | 1.0 | 4.0 | 0.00 | 0.01 | 0.01 | 74 | 1009.6 |
| 20260903230713 | 62 | 160 | 2.0 | 3.0 | 0.00 | 0.01 | 0.01 | 70 | 1009.6 |
| 20260903230208 | 63 | 156 | 4.0 | 4.0 | 0.00 | 0.01 | 0.01 | 69 | 1009.6 |
| 20260903225704 | 65 | 148 | 2.0 | 4.0 | 0.00 | 0.01 | 0.01 | 67 | 1009.6 |
| 20260903225201 | 64 | 125 | 3.0 | 3.0 | 0.00 | 0.01 | 0.01 | 69 | 1009.7 |
| 20260903224656 | 64 | 148 | 2.0 | 5.0 | 0.00 | 0.01 | 0.01 | 67 | 1009.8 |
| 20260903224153 | 64 | 133 | 0.0 | 3.0 | 0.00 | 0.01 | 0.01 | 68 | 1009.8 |
| 20260903223647 | 62 | 167 | 0.0 | 2.0 | 0.00 | 0.01 | 0.01 | 73 | 1009.6 |
| 20260903223145 | 62 | 95 | 1.0 | 2.0 | 0.00 | 0.01 | 0.01 | 73 | 1009.7 |
| 20260903222640 | 62 | 169 | 3.0 | 4.0 | 0.00 | 0.01 | 0.01 | 73 | 1010.0 |
| 20260903222139 | 61 | 121 | 1.0 | 5.0 | 0.00 | 0.01 | 0.01 | 73 | 1009.8 |
| 20260903221634 | 61 | 142 | 1.0 | 6.0 | 0.00 | 0.01 | 0.01 | 73 | 1009.7 |
| 20260903221132 | 60 | 127 | 3.0 | 5.0 | 0.00 | 0.01 | 0.01 | 76 | 1009.8 |
| 20260903220627 | 60 | 121 | 3.0 | 4.0 | 0.00 | 0.01 | 0.01 | 78 | 1009.9 |
| 20260903220127 | 60 | 155 | 4.0 | 4.0 | 0.00 | 0.01 | 0.01 | 77 | 1009.8 |
| 20260903215625 | 61 | 161 | 2.0 | 2.0 | 0.00 | 0.01 | 0.01 | 77 | 1009.9 |
| 20260903215120 | 61 | 138 | 2.0 | 2.0 | 0.00 | 0.01 | 0.01 | 76 | 1009.8 |
| 20260903214614 | 61 | 136 | 2.0 | 2.0 | 0.00 | 0.01 | 0.01 | 77 | 1009.8 |
| 20260903214109 | 61 | 110 | 1.0 | 3.0 | 0.00 | 0.01 | 0.01 | 78 | 1009.8 |
| 20260903213604 | 60 | 105 | 3.0 | 4.0 | 0.00 | 0.01 | 0.01 | 78 | 1009.7 |
| 20260903213100 | 60 | 224 | 2.0 | 5.0 | 0.00 | 0.01 | 0.01 | 79 | 1009.8 |
| 20260903212555 | 59 | 126 | 3.0 | 5.0 | 0.00 | 0.01 | 0.01 | 81 | 1009.7 |
| 20260903212050 | 60 | 126 | 2.0 | 5.0 | 0.00 | 0.01 | 0.01 | 79 | 1009.5 |
| 20260903211545 | 60 | 154 | 4.0 | 7.0 | 0.00 | 0.01 | 0.01 | 79 | 1009.5 |
| 20260903211042 | 59 | 348 | 0.0 | 4.0 | 0.00 | 0.01 | 0.01 | 80 | 1009.5 |
| 20260903210536 | 60 | 269 | 0.0 | 4.0 | 0.00 | 0.01 | 0.01 | 79 | 1009.4 |
| 20260903210033 | 60 | 179 | 2.0 | 4.0 | 0.00 | 0.01 | 0.01 | 78 | 1009.2 |
| 20260903205531 | 61 | 161 | 2.0 | 5.0 | 0.00 | 0.01 | 0.01 | 76 | 1009.2 |
| 20260903205026 | 61 | 114 | 2.0 | 4.0 | 0.00 | 0.01 | 0.01 | 73 | 1009.2 |
| 20260903204522 | 61 | 318 | 2.0 | 3.0 | 0.00 | 0.01 | 0.01 | 71 | 1009.1 |
| 20260903204017 | 61 | 142 | 0.0 | 1.0 | 0.00 | 0.01 | 0.01 | 75 | 1009.0 |
| 20260903203513 | 60 | 161 | 3.0 | 4.0 | 0.00 | 0.01 | 0.01 | 74 | 1009.1 |
| 20260903203012 | 62 | 108 | 2.0 | 4.0 | 0.00 | 0.01 | 0.01 | 72 | 1009.0 |
| 20260903202508 | 63 | 282 | 2.0 | 4.0 | 0.00 | 0.01 | 0.01 | 69 | 1009.0 |
| 20260903202004 | 65 | 117 | 3.0 | 6.0 | 0.00 | 0.01 | 0.01 | 66 | 1008.9 |
| 20260903201458 | 67 | 95 | 2.0 | 8.0 | 0.00 | 0.01 | 0.01 | 63 | 1008.9 |
| 20260903200957 | 67 | 211 | 3.0 | 8.0 | 0.00 | 0.01 | 0.01 | 63 | 1008.8 |
| 20260903200452 | 67 | 153 | 6.0 | 9.0 | 0.00 | 0.01 | 0.01 | 61 | 1008.8 |
| 20260903195947 | 68 | 141 | 2.0 | 9.0 | 0.00 | 0.01 | 0.01 | 63 | 1008.6 |
| 20260903195443 | 65 | 205 | 2.0 | 3.0 | 0.00 | 0.01 | 0.01 | 66 | 1008.7 |
| 20260903194938 | 66 | 155 | 3.0 | 4.0 | 0.00 | 0.01 | 0.01 | 62 | 1008.7 |
| 20260903194433 | 66 | 131 | 2.0 | 4.0 | 0.00 | 0.01 | 0.01 | 66 | 1008.9 |
| 20260903193928 | 66 | 186 | 4.0 | 4.0 | 0.00 | 0.01 | 0.01 | 66 | 1008.9 |
| 20260903193425 | 65 | 167 | 2.0 | 6.0 | 0.00 | 0.01 | 0.01 | 68 | 1008.8 |
| 20260903192919 | 66 | 145 | 5.0 | 5.0 | 0.00 | 0.01 | 0.01 | 70 | 1008.7 |
| 20260903192416 | 65 | 121 | 4.0 | 8.0 | 0.00 | 0.01 | 0.01 | 72 | 1008.7 |
| 20260903191912 | 66 | 154 | 3.0 | 6.0 | 0.00 | 0.01 | 0.01 | 71 | 1008.5 |
| 20260903191408 | 64 | 181 | 4.0 | 5.0 | 0.00 | 0.01 | 0.01 | 75 | 1008.6 |
| 20260903190907 | 65 | 111 | 2.0 | 9.0 | 0.00 | 0.01 | 0.01 | 71 | 1008.7 |
| 20260903190401 | 64 | 140 | 3.0 | 7.0 | 0.00 | 0.01 | 0.01 | 74 | 1008.6 |
| 20260903185901 | 61 | 155 | 2.0 | 6.0 | 0.00 | 0.01 | 0.01 | 79 | 1008.6 |
| 20260903185356 | 61 | 191 | 5.0 | 6.0 | 0.00 | 0.01 | 0.01 | 78 | 1008.8 |
| 20260903184851 | 62 | 151 | 3.0 | 8.0 | 0.00 | 0.01 | 0.01 | 78 | 1008.6 |
| 20260903184349 | 63 | 168 | 5.0 | 6.0 | 0.00 | 0.01 | 0.01 | 75 | 1008.6 |
| 20260903183843 | 62 | 124 | 3.0 | 6.0 | 0.00 | 0.01 | 0.01 | 75 | 1008.5 |
| 20260903183338 | 63 | 170 | 5.0 | 8.0 | 0.00 | 0.01 | 0.01 | 75 | 1008.5 |
| 20260903182837 | 63 | 144 | 2.0 | 5.0 | 0.00 | 0.01 | 0.01 | 76 | 1008.5 |
| 20260903182336 | 63 | 166 | 3.0 | 6.0 | 0.00 | 0.01 | 0.01 | 74 | 1008.5 |
| 20260903181831 | 63 | 144 | 3.0 | 8.0 | 0.00 | 0.01 | 0.01 | 78 | 1008.4 |
| 20260903181326 | 62 | 152 | 0.0 | 6.0 | 0.00 | 0.01 | 0.01 | 81 | 1008.4 |
| 20260903180825 | 62 | 133 | 3.0 | 6.0 | 0.00 | 0.01 | 0.01 | 78 | 1008.4 |
| 20260903180320 | 62 | 137 | 5.0 | 6.0 | 0.00 | 0.01 | 0.01 | 78 | 1008.2 |
| 20260903175819 | 60 | 108 | 2.0 | 5.0 | 0.00 | 0.01 | 0.01 | 83 | 1008.3 |
| 20260903175319 | 61 | 131 | 4.0 | 5.0 | 0.00 | 0.01 | 0.01 | 80 | 1008.3 |
| 20260903174813 | 62 | 173 | 5.0 | 5.0 | 0.00 | 0.01 | 0.01 | 77 | 1008.1 |
| 20260903174309 | 60 | 132 | 4.0 | 7.0 | 0.00 | 0.01 | 0.01 | 81 | 1008.2 |
| 20260903173803 | 59 | 134 | 4.0 | 8.0 | 0.00 | 0.01 | 0.01 | 81 | 1008.2 |
| 20260903173258 | 60 | 131 | 4.0 | 9.0 | 0.00 | 0.01 | 0.01 | 81 | 1008.2 |
| 20260903172754 | 61 | 178 | 5.0 | 8.0 | 0.00 | 0.01 | 0.01 | 77 | 1008.2 |
| 20260903172249 | 61 | 111 | 5.0 | 5.0 | 0.00 | 0.01 | 0.01 | 82 | 1008.1 |
| 20260903171744 | 62 | 189 | 7.0 | 7.0 | 0.00 | 0.01 | 0.01 | 76 | 1008.0 |
| 20260903171239 | 62 | 170 | 3.0 | 3.0 | 0.00 | 0.01 | 0.01 | 79 | 1007.9 |
| 20260903170738 | 60 | 100 | 3.0 | 8.0 | 0.00 | 0.01 | 0.01 | 83 | 1007.7 |
| 20260903170234 | 61 | 119 | 4.0 | 6.0 | 0.00 | 0.01 | 0.01 | 84 | 1007.6 |
| 20260903165732 | 60 | 129 | 3.0 | 6.0 | 0.00 | 0.01 | 0.01 | 84 | 1007.5 |
| 20260903165227 | 59 | 163 | 2.0 | 7.0 | 0.00 | 0.01 | 0.01 | 86 | 1007.4 |
| 20260903164721 | 58 | 134 | 2.0 | 5.0 | 0.00 | 0.01 | 0.01 | 91 | 1007.6 |
| 20260903164218 | 57 | 155 | 3.0 | 8.0 | 0.00 | 0.01 | 0.01 | 91 | 1007.7 |
| 20260903163717 | 56 | 116 | 4.0 | 5.0 | 0.00 | 0.01 | 0.01 | 93 | 1007.6 |
| 20260903163213 | 56 | 116 | 3.0 | 8.0 | 0.00 | 0.01 | 0.01 | 93 | 1007.5 |
| 20260903162709 | 56 | 125 | 3.0 | 6.0 | 0.00 | 0.01 | 0.01 | 95 | 1007.5 |
| 20260903162205 | 55 | 167 | 2.0 | 6.0 | 0.00 | 0.01 | 0.01 | 96 | 1007.5 |
| 20260903161700 | 55 | 130 | 2.0 | 6.0 | 0.00 | 0.01 | 0.01 | 98 | 1007.7 |
| 20260903161156 | 54 | 49 | 3.0 | 6.0 | 0.00 | 0.01 | 0.01 | 99 | 1007.8 |
| 20260903160651 | 54 | 35 | 2.0 | 2.0 | 0.00 | 0.01 | 0.01 | 99 | 1007.4 |
| 20260903160145 | 53 | 169 | 6.0 | 6.0 | 0.00 | 0.01 | 0.01 | 99 | 1007.4 |
| 20260903155644 | 53 | 101 | 2.0 | 7.0 | 0.00 | 0.01 | 0.01 | 99 | 1007.6 |
| 20260903155139 | 53 | 74 | 2.0 | 4.0 | 0.00 | 0.01 | 0.01 | 99 | 1007.8 |
| 20260903154635 | 53 | 89 | 0.0 | 3.0 | 0.00 | 0.01 | 0.01 | 99 | 1007.6 |
| 20260903154131 | 52 | 177 | 2.0 | 4.0 | 0.00 | 0.01 | 0.01 | 99 | 1007.6 |
| 20260903153626 | 52 | 72 | 0.0 | 4.0 | 0.00 | 0.01 | 0.01 | 99 | 1007.7 |
| 20260903153122 | 52 | 212 | 0.0 | 4.0 | 0.00 | 0.01 | 0.01 | 99 | 1007.7 |
| 20260903152618 | 52 | 142 | 1.0 | 2.0 | 0.00 | 0.01 | 0.01 | 99 | 1007.7 |
| 20260903152114 | 52 | 122 | 1.0 | 2.0 | 0.00 | 0.01 | 0.01 | 99 | 1007.7 |
| 20260903151613 | 52 | 125 | 1.0 | 2.0 | 0.00 | 0.01 | 0.01 | 99 | 1007.5 |
| 20260903151109 | 52 | 84 | 0.0 | 3.0 | 0.00 | 0.01 | 0.01 | 99 | 1007.7 |
| 20260903150608 | 52 | 17 | 4.0 | 4.0 | 0.00 | 0.01 | 0.01 | 99 | 1007.7 |
| 20260903150104 | 52 | 91 | 3.0 | 4.0 | 0.00 | 0.01 | 0.01 | 99 | 1007.7 |
| 20260903145603 | 52 | 35 | 2.0 | 4.0 | 0.00 | 0.01 | 0.01 | 99 | 1007.6 |
| 20260903145058 | 52 | 110 | 2.0 | 2.0 | 0.00 | 0.01 | 0.01 | 99 | 1007.4 |
| 20260903144557 | 52 | 78 | 1.0 | 4.0 | 0.00 | 0.01 | 0.01 | 99 | 1007.6 |
| 20260903144053 | 52 | 100 | 2.0 | 3.0 | 0.00 | 0.01 | 0.01 | 99 | 1007.6 |
| 20260903143549 | 52 | 110 | 3.0 | 4.0 | 0.00 | 0.01 | 0.01 | 99 | 1007.6 |
| 20260903143045 | 52 | 126 | 1.0 | 5.0 | 0.00 | 0.01 | 0.01 | 99 | 1007.5 |
| 20260903142540 | 52 | 155 | 4.0 | 6.0 | 0.00 | 0.01 | 0.01 | 99 | 1007.7 |
| 20260903142037 | 52 | 151 | 3.0 | 7.0 | 0.00 | 0.01 | 0.01 | 99 | 1007.5 |
| 20260903141532 | 52 | 190 | 0.0 | 5.0 | 0.00 | 0.01 | 0.01 | 99 | 1007.5 |
| 20260903141027 | 52 | 106 | 2.0 | 3.0 | 0.00 | 0.01 | 0.01 | 99 | 1007.4 |
| 20260903140523 | 52 | 101 | 3.0 | 5.0 | 0.00 | 0.01 | 0.01 | 99 | 1007.4 |
| 20260903140018 | 52 | 139 | 3.0 | 6.0 | 0.00 | 0.01 | 0.01 | 99 | 1007.4 |
| 20260903135513 | 52 | 124 | 2.0 | 5.0 | 0.00 | 0.01 | 0.01 | 99 | 1007.3 |
| 20260903135008 | 52 | 130 | 2.0 | 6.0 | 0.00 | 0.01 | 0.01 | 99 | 1007.1 |
| 20260903134508 | 52 | 135 | 5.0 | 7.0 | 0.00 | 0.01 | 0.01 | 99 | 1007.0 |
| 20260903134004 | 52 | 113 | 2.0 | 4.0 | 0.00 | 0.01 | 0.01 | 99 | 1007.1 |
| 20260903133501 | 52 | 155 | 5.0 | 10.0 | 0.00 | 0.01 | 0.01 | 99 | 1006.9 |
| 20260903132956 | 52 | 14 | 3.0 | 8.0 | 0.00 | 0.01 | 0.01 | 99 | 1007.0 |
| 20260903132451 | 52 | 96 | 3.0 | 6.0 | 0.00 | 0.01 | 0.01 | 99 | 1006.9 |
| 20260903131951 | 52 | 110 | 5.0 | 7.0 | 0.00 | 0.01 | 0.01 | 99 | 1006.6 |
| 20260903131446 | 52 | 159 | 4.0 | 9.0 | 0.00 | 0.01 | 0.01 | 99 | 1006.7 |
| 20260903130945 | 52 | 182 | 4.0 | 6.0 | 0.00 | 0.01 | 0.01 | 99 | 1007.0 |
| 20260903130440 | 52 | 169 | 5.0 | 8.0 | 0.00 | 0.01 | 0.01 | 99 | 1006.6 |
| 20260903125939 | 52 | 147 | 3.0 | 6.0 | 0.02 | 0.01 | 0.01 | 99 | 1006.6 |
| 20260903125433 | 52 | 104 | 4.0 | 6.0 | 0.02 | 0.01 | 0.01 | 99 | 1006.6 |
| 20260903124933 | 52 | 120 | 4.0 | 5.0 | 0.00 | 0.00 | 0.00 | 99 | 1006.5 |
| 20260903124428 | 52 | 140 | 4.0 | 10.0 | 0.00 | 0.00 | 0.00 | 99 | 1006.1 |
| 20260903123927 | 52 | 120 | 4.0 | 7.0 | 0.00 | 0.00 | 0.00 | 99 | 1006.5 |
| 20260903123422 | 52 | 142 | 4.0 | 8.0 | 0.00 | 0.00 | 0.00 | 99 | 1006.6 |
| 20260903122921 | 52 | 125 | 4.0 | 7.0 | 0.00 | 0.00 | 0.00 | 99 | 1006.5 |
| 20260903122420 | 52 | 89 | 3.0 | 6.0 | 0.00 | 0.00 | 0.00 | 99 | 1006.4 |
| 20260903121920 | 52 | 133 | 4.0 | 5.0 | 0.02 | 0.00 | 0.00 | 99 | 1006.4 |
| 20260903121415 | 52 | 95 | 0.0 | 5.0 | 0.02 | 0.00 | 0.00 | 99 | 1006.3 |
| 20260903120912 | 52 | 177 | 3.0 | 7.0 | 0.00 | 0.00 | 0.00 | 99 | 1006.2 |
| 20260903120410 | 52 | 61 | 2.0 | 5.0 | 0.00 | 0.00 | 0.00 | 99 | 1006.3 |
| 20260903115909 | 52 | 197 | 2.0 | 8.0 | 0.00 | 0.00 | 0.00 | 99 | 1006.4 |
| 20260903115408 | 52 | 129 | 5.0 | 8.0 | 0.00 | 0.00 | 0.00 | 99 | 1006.2 |
| 20260903114903 | 52 | 92 | 2.0 | 6.0 | 0.00 | 0.00 | 0.00 | 99 | 1006.3 |
| 20260903114359 | 52 | 107 | 2.0 | 8.0 | 0.00 | 0.00 | 0.00 | 99 | 1006.3 |
| 20260903113854 | 52 | 145 | 3.0 | 6.0 | 0.00 | 0.00 | 0.00 | 99 | 1006.1 |
| 20260903113350 | 52 | 102 | 2.0 | 13.0 | 0.00 | 0.00 | 0.00 | 99 | 1005.9 |
| 20260903112846 | 52 | 254 | 1.0 | 4.0 | 0.00 | 0.00 | 0.00 | 99 | 1006.2 |
| 20260903112341 | 52 | 125 | 5.0 | 6.0 | 0.00 | 0.00 | 0.00 | 99 | 1005.9 |
| 20260903111840 | 52 | 177 | 1.0 | 8.0 | 0.00 | 0.00 | 0.00 | 99 | 1006.0 |
| 20260903111340 | 52 | 144 | 2.0 | 8.0 | 0.00 | 0.00 | 0.00 | 99 | 1005.9 |
| 20260903110837 | 52 | 255 | 2.0 | 6.0 | 0.00 | 0.00 | 0.00 | 99 | 1005.9 |
| 20260903110327 | 52 | 187 | 6.0 | 17.0 | 0.00 | 0.00 | 0.00 | 99 | 1005.8 |
| 20260903105827 | 52 | 108 | 2.0 | 7.0 | 0.00 | 0.00 | 0.00 | 99 | 1005.9 |
| 20260903105326 | 52 | 165 | 3.0 | 7.0 | 0.00 | 0.00 | 0.00 | 99 | 1005.9 |
| 20260903104821 | 52 | 340 | 3.0 | 6.0 | 0.00 | 0.00 | 0.00 | 99 | 1005.9 |
| 20260903104316 | 52 | 21 | 2.0 | 11.0 | 0.00 | 0.00 | 0.00 | 99 | 1006.0 |